{"data":{"norad_id":56395,"intl_designator":"2023-061X","name":"STARLINK-6273","alt_names":[],"object_type":"PAYLOAD","status":"ACTIVE","operator":null,"country":"US","launch_date":"2023-05-04","launch_site_code":"AFETR","launch_vehicle":null,"mission":null,"orbit_class":"UNKNOWN","rcs_meters":null,"size_class":null,"mass_kg":null,"dimensions":null,"purposes":["comms"],"wikipedia_slug":null,"has_3d_model":false,"image_url":null,"decayed_at":null,"tle_current":{"epoch":"2026-05-25T05:12:01.698048Z","epoch_age_seconds":56667,"freshness":"FRESH","line1":"1 56395U 23061X   26145.21668632 -.00001174  00000+0 -33144-4 0  9995","line2":"2 56395  43.0011 115.2648 0001239 270.7177  89.3533 15.27584100169282","mean_motion":15.275841,"eccentricity":0.0001239,"inclination_deg":43.0011,"raan_deg":115.2648,"arg_perigee_deg":270.7177,"mean_anomaly_deg":89.3533,"bstar":-3.3144e-5,"rev_number":16928,"period_min":94.266495703903,"perigee_km":482.18671975595,"apogee_km":483.88691862834,"semimajor_km":6861.1738191921,"source":"CELESTRAK","updated_at":"2026-05-25T13:38:18.014522Z"}}}